Regional Weather Roundup
Issued by NWS

Home | Current Version | Previous Version | Text Only | Print | Product List | Glossary On
Versions: 1 2 3 4 5 6 7 8 9 10 11 12 13 14 15 16 17 18 19 20 21 22 23 24 25 26 27 28 29 30 31 32 33 34 35 36 37 38 39 40 41 42 43 44 45 46 47 48 49 50
000
ASUS43 KBIS 291802
RWRND

NORTH DAKOTA REGIONAL WEATHER ROUNDUP
NATIONAL WEATHER SERVICE BISMARCK ND
100 PM CDT SAT APR 29 2017

NOTE: "FAIR" INDICATES FEW OR NO CLOUDS BELOW 12,000 FEET WITH NO
SIGNIFICANT WEATHER AND/OR OBSTRUCTIONS TO VISIBILITY.


NDZ001>003-009>011-017-291900-
NORTHWEST NORTH DAKOTA

CITY           SKY/WX    TMP DP  RH WIND       PRES   REMARKS
WILLISTON      FAIR      59  31  34 VRB3      30.25F
6HR MIN TEMP:  28; 6HR MAX TEMP:  60;

MINOT          FAIR      62  24  23 SW16G24   30.23S
MINOT AFB      MOSUNNY   62  26  24 W13       30.21F
$$

NDZ018>021-031>035-040>046-291900-
SOUTHWEST NORTH DAKOTA

CITY           SKY/WX    TMP DP  RH WIND       PRES   REMARKS
BISMARCK       FAIR      61  19  19 CALM      30.29F
6HR MIN TEMP:  25; 6HR MAX TEMP:  61;

DICKINSON      FAIR      57  17  21 S8G17     30.23F
GARRISON         N/A     59  21  23 S13G20    30.25F
6HR MIN TEMP:  29; 6HR MAX TEMP:  60;

HETTINGER ARPT MOSUNNY   54  20  26 S7        30.28F
$$

NDZ004>008-012>016-024-026-027-054-291900-
NORTHEAST NORTH DAKOTA

CITY           SKY/WX    TMP DP  RH WIND       PRES   REMARKS
GRAND FORKS    MOSUNNY   56  23  27 S3        30.33S
GRND FRKS AFB  SUNNY     55  22  28 S6        30.33S
DEVILS LAKE    FAIR      56  17  21 SW7       30.31S
$$

NDZ022-023-025-028>030-036>039-047>053-291900-
SOUTHEAST NORTH DAKOTA

CITY           SKY/WX    TMP DP  RH WIND       PRES   REMARKS
FARGO          SUNNY     55  18  23 VRB3      30.32F
6HR MIN TEMP:  27; 6HR MAX TEMP:  56;

JAMESTOWN      FAIR      55  16  21 W6        30.30F
$$





USA.gov is the U.S. government's official web portal to all federal, state and local government web resources and services.